Wind_Speed
15 14 19 22 20 19 16 16 17 18 18 19 20 21 21 21 21 18 18 16 16 14 15 17 16 16 19 18 18 18 19 19 20
16 19 21 21 22 19 16 16 15 16 16 16 18 19 18 18 19 18 15 13 14 15 15 16 16 15 16 16 17 17 18 16 16
18 22 21 18 19 19 17 16 15 14 14 14 16 17 17 17 16 14 14 14 15 14 15 14 15 17 19 19 15 16 15 15 16
20 24 18 18 17 18 18 16 16 14 15 15 15 15 17 17 15 18 19 17 16 16 16 15 17 16 14 14 15 15 15 15 16
20 19 17 17 17 18 18 19 17 16 16 15 14 15 16 15 17 17 17 19 17 17 17 16 16 15 17 14 13 11 16 16 16
18 16 14 15 16 18 19 18 18 16 16 14 15 18 16 16 16 17 17 17 17 15 15 14 15 17 16 12 13 10 13 12 12
17 19 18 15 16 18 19 18 17 18 18 18 17 18 16 16 13 11 10 15 16 17 15 14 18 16 12 12 12 12 10 10 10
18 17 15 14 16 20 18 17 18 19 20 19 16 16 15 13 11 8 6 9 14 15 16 14 15 13 10 12 10 10 11 10 10
21 20 18 16 17 21 20 17 18 19 19 17 16 15 15 12 8 4 3 6 13 14 13 15 14 11 11 11 10 10 10 9 9
22 22 20 18 17 19 23 19 19 20 21 19 17 17 14 11 10 7 7 5 10 13 12 12 13 13 14 11 11 11 9 9 9
23 23 22 19 19 19 20 22 21 21 21 19 19 17 13 10 8 7 10 9 10 11 12 14 12 12 13 12 12 11 9 9 10
25 26 25 22 22 20 19 22 21 22 20 21 19 17 13 13 8 9 9 13 12 10 12 16 16 14 14 13 13 11 10 10 10
25 27 27 25 22 21 21 22 23 21 21 20 20 19 16 12 12 11 10 11 10 10 13 15 16 19 18 17 14 12 11 11 11
27 27 28 25 23 22 22 24 24 24 22 22 21 18 17 15 15 15 14 13 13 11 13 15 16 20 19 17 16 13 14 12 12
28 28 28 25 23 22 22 24 24 25 25 22 19 20 17 16 17 17 17 17 16 15 16 16 17 21 19 18 19 17 17 15 14
28 29 29 26 23 23 24 24 26 24 24 20 15 15 18 20 22 21 20 20 21 18 17 19 18 19 21 20 19 20 19 18 16
29 27 25 21 20 18 20 23 21 19 24 14 8 4 8 17 23 22 21 23 25 22 18 18 20 21 23 23 22 23 20 20 18
23 22 20 17 15 15 14 16 20 20 22 19 7 2 5 8 16 25 26 27 26 26 22 22 22 24 23 25 24 24 25 23 20
23 20 15 11 8 9 10 10 12 15 18 21 13 5 4 3 3 12 27 27 27 29 27 26 26 27 27 27 27 28 29 27 25
29 22 20 17 13 10 5 4 8 9 7 16 17 11 8 2 1 2 5 22 30 31 30 30 31 31 31 32 31 30 31 33 32
Wind_Direction
182 182 166 159 153 152 146 145 141 145 143 141 139 137 136 133 127 120 126 119 116 114 113 111 112 113 113 112 112 110 117 96 97
189 186 172 172 165 158 152 151 147 152 152 152 153 152 149 144 138 134 130 122 121 119 119 120 115 111 118 114 109 110 98 108 98
194 183 174 174 165 158 157 158 154 152 150 150 160 163 162 155 146 141 133 131 128 128 126 124 124 123 114 115 110 116 110 110 111
184 177 176 169 167 163 162 161 158 154 153 149 148 152 158 154 151 148 141 140 133 133 134 130 126 119 121 125 118 113 120 117 122
175 177 174 169 166 164 164 160 158 160 156 155 159 155 155 156 155 153 150 143 137 134 136 133 141 139 128 122 123 138 119 116 105
184 160 162 174 165 168 162 164 165 160 160 163 160 156 160 163 161 162 161 155 142 145 141 149 152 137 130 129 140 121 116 107 124
190 180 181 178 171 167 168 173 169 165 165 165 161 156 157 153 157 161 172 161 147 148 140 152 142 135 139 150 123 123 120 144 140
188 182 182 167 175 167 174 177 175 174 172 164 170 173 167 163 153 145 163 178 154 152 151 158 145 138 158 154 136 146 148 140 140
187 187 186 185 179 170 181 179 180 180 180 172 187 188 177 163 171 131 151 180 169 158 162 164 165 160 179 168 169 172 159 157 152
198 195 192 189 184 184 182 184 188 188 192 193 193 184 174 174 175 210 247 219 187 173 168 173 159 168 179 173 179 170 176 172 162
202 202 192 193 192 188 190 190 196 198 197 197 187 177 172 178 188 217 228 217 202 199 189 186 179 177 182 186 180 202 187 180 174
205 203 200 198 196 194 196 200 203 207 198 190 193 187 189 191 211 233 239 223 206 208 201 185 184 186 189 185 180 205 197 192 190
208 207 206 199 196 198 200 205 207 203 197 191 189 197 202 209 216 226 239 217 215 235 230 212 201 198 197 195 194 211 207 203 202
215 212 208 199 196 198 203 209 211 202 195 195 201 208 204 202 215 221 218 231 222 228 246 230 228 213 203 198 198 213 212 213 213
219 212 201 195 200 204 207 217 213 211 203 200 199 208 218 216 214 220 225 227 234 236 252 246 239 221 216 223 209 203 215 217 219
214 204 193 196 206 218 217 213 211 209 209 201 211 225 221 218 220 224 220 225 233 233 241 253 242 236 230 224 224 208 209 211 219
201 195 191 199 199 201 204 207 199 212 204 183 179 185 221 230 226 226 229 235 230 227 228 249 248 245 241 236 236 224 212 220 217
166 174 179 177 188 191 195 207 208 208 214 208 181 161 217 199 221 224 221 226 225 224 229 238 249 253 248 241 241 234 233 230 225
76 89 103 110 135 180 185 199 215 216 217 212 215 203 167 184 199 224 222 225 232 230 230 235 238 245 252 249 248 246 239 242 239
79 72 68 76 73 61 97 175 215 219 201 215 223 238 238 229 109 180 212 230 236 240 241 238 241 245 246 251 252 253 250 250 245
Height
835 838 839 840 842 844 846 848 849 849 850 851 853 855 856 858 860 862 863 865 866 867 868 869 871 871 871 872 873 874 874 875 876
835 837 838 840 842 845 846 849 850 851 852 853 855 856 858 860 862 864 866 867 868 869 871 872 873 873 874 876 876 877 877 878 879
834 837 838 840 842 843 846 849 851 853 853 855 856 858 859 861 863 865 867 869 870 871 872 873 874 875 876 878 879 880 881 882 882
833 836 838 839 841 843 845 848 851 853 854 856 857 859 861 863 864 866 868 870 871 872 873 875 876 877 878 880 881 882 883 884 885
834 835 837 839 841 843 846 848 850 853 855 856 858 860 862 864 865 867 869 871 872 873 874 876 878 879 880 882 883 884 885 886 887
833 836 840 843 840 843 846 849 850 853 856 857 859 861 863 865 866 868 870 871 873 874 875 877 878 880 882 884 886 885 887 888 889
832 836 837 842 839 842 846 849 851 853 855 858 860 862 864 865 867 869 870 871 873 874 876 878 879 881 883 885 886 887 888 890 891
830 833 836 836 837 841 846 848 851 853 855 858 861 863 864 866 868 870 871 872 874 875 876 878 880 882 885 886 887 888 890 891 892
828 830 832 835 838 839 843 848 851 853 856 857 861 863 865 866 868 870 872 873 874 876 876 879 880 883 886 887 889 890 891 892 893
826 829 831 834 836 839 841 846 850 852 855 857 859 862 864 866 868 870 872 873 874 876 876 879 881 883 886 887 889 890 892 893 894
822 826 828 832 835 837 840 843 847 850 852 855 858 860 863 865 867 870 871 872 873 875 875 877 881 883 886 887 888 890 892 893 894
818 822 825 829 833 835 839 842 845 848 850 853 856 859 862 864 866 869 870 870 872 873 875 876 879 882 885 886 888 890 892 893 893
815 818 822 825 830 833 836 839 842 845 848 851 853 856 859 862 864 867 869 870 871 872 874 876 876 878 882 884 886 889 891 892 892
812 814 819 822 826 829 833 837 839 841 845 849 852 855 856 859 861 864 866 869 870 871 872 874 876 877 879 881 883 885 888 890 891
808 810 815 819 824 827 830 833 837 839 841 845 848 851 853 855 858 860 863 865 867 869 870 871 873 874 877 878 879 882 884 887 888
803 806 810 815 819 823 826 830 834 835 838 842 846 848 850 851 853 856 858 861 863 865 867 868 870 871 873 875 876 878 880 882 884
798 803 807 811 815 820 823 827 830 833 834 837 841 845 848 847 848 849 852 855 858 860 863 864 866 867 869 870 872 874 877 879 879
791 799 805 809 813 817 821 824 827 829 831 834 836 842 838 841 841 843 844 847 850 853 857 860 862 863 865 867 868 870 872 874 875
790 798 804 808 810 817 819 822 825 827 828 830 831 833 833 834 838 838 839 842 844 846 849 853 856 858 859 861 863 865 867 868 870
798 803 806 808 814 816 818 819 823 825 826 827 828 831 832 832 833 833 835 837 838 840 843 845 849 851 853 855 856 858 860 861 863